Simultaneous Nadir Overpasses (SNOs) Predictions

Prediction of SNOs between AQUA and METOP-C Satellite Orbit:

Table of predicted SNOs for the next 14.0 days since TLE Epoch: 5/4/2024
Index Date (AQUA) Time (AQUA) Lat,Lon (AQUA) SZA (AQUA ) Date (METOP-C) Time (METOP-C) Lat,Lon (METOP-C) SZA (METOP-C ) Distance(km) Time Diff (sec)
1 05/06/2024 03:21:19 75.29, 127.85 58.56 05/06/2024 03:20:15 75.27, 127.86 58.54 2.47 64
2 05/06/2024 04:10:41 -75.32, -64.57 121.43 05/06/2024 04:10:55 -75.32, -64.68 121.43 3.27 14
3 05/08/2024 19:32:17 75.31,-114.90 57.85 05/08/2024 19:31:54 75.32,-114.90 57.86 0.58 23
4 05/08/2024 20:21:40 -75.39, 52.55 122.09 05/08/2024 20:22:34 -75.36, 52.56 122.11 3.16 54
5 05/11/2024 10:53:50 -75.30,-165.19 122.86 05/11/2024 10:52:54 -75.28,-165.26 122.87 2.54 56
6 05/11/2024 11:43:14 75.34, 2.33 57.18 05/11/2024 11:43:33 75.36, 2.31 57.20 1.78 19
7 05/14/2024 03:04:46 -75.33, -47.97 123.48 05/14/2024 03:04:33 -75.31, -48.07 123.50 3.34 13
8 05/14/2024 03:54:10 75.38, 119.54 56.56 05/14/2024 03:55:12 75.39, 119.49 56.57 1.72 62
9 05/16/2024 18:26:18 75.30, -98.22 55.88 05/16/2024 18:25:31 75.33, -98.24 55.91 3.49 47
10 05/16/2024 19:15:40 -75.38, 69.23 124.06 05/16/2024 19:16:10 -75.39, 69.24 124.05 1.13 30



Historial Predications of SNOs between AQUA and METOP-C
